Regional Weather Roundup
Issued by NWS

Home | Current Version | Previous Version | Graphics & Text | Print | Product List | Glossary On
Versions: 1 2 3 4 5 6 7 8 9 10 11 12 13 14 15 16 17 18 19 20 21 22 23 24 25 26 27 28 29 30 31 32 33 34 35 36 37 38 39 40 41 42 43 44 45 46 47 48 49 50
000
ASUS43 KMKX 050700
RWRWI

WISCONSIN REGIONAL WEATHER ROUNDUP
NATIONAL WEATHER SERVICE MILWAUKEE/SULLIVAN WI
200 AM CDT WED AUG 05 2015

NOTE: "FAIR" INDICATES FEW OR NO CLOUDS BELOW 12,000 FEET WITH NO
SIGNIFICANT WEATHER AND/OR OBSTRUCTIONS TO VISIBILITY.

WIZ001-002-006>008-014>016-023>028-050800-
NORTHWEST WISCONSIN

CITY           SKY/WX    TMP DP  RH WIND       PRES   REMARKS
SUPERIOR ARPT  PTCLDY    52  49  90 NE3       30.08S
ASHLAND        FOG       47  47 100 CALM      30.08S VSB 1
HAYWARD        CLEAR     50  48  93 N5        30.08S
SIREN          CLEAR     58  55  89 CALM      30.06F
CUMBERLAND     CLEAR     55  52  88 NE6       30.07S
RICE LAKE      CLEAR     55  52  90 CALM      30.07F
CHETEK         CLEAR     60  55  83 E3        30.06S
LADYSMITH      MOCLDY    57  53  85 CALM      30.08S
EAU CLAIRE     CLEAR     60  55  83 NE7       30.03S
MENOMONIE      CLEAR     60  56  89 N5        30.05R
NEW RICHMOND   CLEAR     57  54  90 NE3       30.05S
OSCEOLA        CLEAR     57  57 100 E3        30.07S
$$

WIZ003>005-009-010-017-018-050800-
NORTH CENTRAL WISCONSIN

CITY           SKY/WX    TMP DP  RH WIND       PRES   REMARKS
MANITOWISH WTR PTCLDY    46  46 100 CALM      30.08F FOG
ARBOR VITAE    CLEAR     51  49  93 CALM      30.08F
WOODRUFF       CLEAR     51  49  93 CALM      30.08F
RHINELANDER    PTCLDY    52  50  93 CALM      30.08F
EAGLE RIVER    PTCLDY    44  44 100 CALM      30.09R FOG
LAND O LAKES   CLEAR     42  42  99 CALM      30.10S
PHILLIPS       CLOUDY    54  51  92 CALM      30.07F
TOMAHAWK       CLOUDY    57  51  80 CALM      30.08S
MEDFORD        CLEAR     52  50  93 NE5       30.06F
MERRILL        NOT AVBL
$$

WIZ029-030-035-036-043>047-050800-
CENTRAL WISCONSIN

CITY           SKY/WX    TMP DP  RH WIND       PRES   REMARKS
WAUSAU         CLEAR     58  52  80 NE3       30.05S
MOSINEE        CLEAR     55  54  94 NE5       30.06F
MARSHFIELD     CLEAR     59  52  77 NE6       30.05S
STEVENS POINT  CLEAR     53  52  95 CALM      30.06S
WAUPACA        CLEAR     57  56  97 CALM      30.04F
WAUTOMA        NOT AVBL
WISC RAPIDS    PTCLDY    58  54  86 CALM      30.05F
CAMP DOUGLAS   NOT AVBL
$$

WIZ011>013-019>022-031-037>040-048>050-050800-
NORTHEAST WISCONSIN

CITY           SKY/WX    TMP DP  RH WIND       PRES   REMARKS
ANTIGO         MOCLDY    55  52  90 NE3       30.07F
SHAWANO        CLOUDY    64  58  80 E5        30.05F
OCONTO         MOCLDY    58  58 100 N3        30.05S
STURGEON BAY   CLEAR     59  54  82 E6        30.07F
GREEN BAY      CLEAR     59  55  87 NE3       30.04F
MANITOWOC      NOT AVBL
APPLETON       CLEAR     59  54  82 NE5       30.04S
CLINTONVILLE   CLEAR     57  55  94 CALM      30.04S
OSHKOSH        CLEAR     58  53  84 CALM      30.03S
$$

WIZ032>034-041-042-053>061-050800-
SOUTHWEST WISCONSIN

CITY           SKY/WX    TMP DP  RH WIND       PRES   REMARKS
LA CROSSE      CLEAR     61  58  90 SE6       30.03S
SPARTA         PTCLDY    52  50  94 CALM      30.05S
VIROQUA        CLEAR     60  55  82 SW3       30.05F
BOSCOBEL       PTCLDY    55  53  93 CALM      30.05S
PRAIRIE DU CHI PTCLDY    58  55  91 CALM      30.04S
PLATTEVILLE    PTCLDY    60  55  82 NE3       30.04F
$$

WIZ056-057-062-063-064-067-068-050800-
SOUTH CENTRAL WISCONSIN

CITY           SKY/WX    TMP DP  RH WIND       PRES   REMARKS
REEDSBURG      CLEAR     56  55  98 CALM      30.04S
BARABOO/DELLS  CLEAR     57  53  84 CALM      30.04S
LONE ROCK      NOT AVBL
MINERAL POINT  PTCLDY    63  55  77 CALM      30.06R
MADISON        CLEAR     58  54  86 CALM      30.04S
MIDDLETON      CLEAR     57  54  91 CALM      30.05S
WATERTOWN      CLEAR     56  56 100 CALM      30.03S
MONROE         CLEAR     64  52  63 W6        30.05S
JANESVILLE     FAIR      59  55  88 CALM      30.04S
$$

WIZ051-052-058>065-066-070>072-050800-
SOUTHEAST WISCONSIN

CITY           SKY/WX    TMP DP  RH WIND       PRES   REMARKS
MILWAUKEE      PTCLDY    63  55  75 CALM      30.03S
WAUKESHA       CLEAR     59  54  82 CALM      30.04F
MILWAUKEE/TIMM CLEAR     61  52  72 CALM      30.04S
RACINE         CLEAR     63  56  78 W5        30.04F
BURLINGTON     PTCLDY    53  52  97 CALM      30.04R
KENOSHA        PTCLDY    58  56  93 W3        30.03S
FOND DU LAC    CLEAR     56  54  93 CALM      30.03S
SHEBOYGAN      CLEAR     58  54  86 N5        30.03S
WEST BEND      CLEAR     57  54  88 CALM      30.03S
JUNEAU         CLEAR     60  55  84 CALM      30.04S
$$

LSZ147-162-050800-
LAKE SUPERIOR

STATION/POSITION TIME  TEMP    WIND        PRES    WAVE
                       AIR SEA DIR/SP/G            HT/PER
                 (UTC) (F)     (DEG/KT/KT) (MB)    (FT/S)
W MID LAKE BUOY  0550   58 57  270/  6/  6 1018.3R   0
DEVILS ISLAND    0600   59     290/  5/  6 1018.8R
PORT WING        0640   55     130/  1/  6 1018.6S
SAXON HARBOR     0640   52      CALM  /  3 1018.3R
$$

LMZ867-665-643>646-050800-
LAKE MICHIGAN

STATION/POSITION TIME  TEMP    WIND        PRES    WAVE
                       AIR SEA DIR/SP/G            HT/PER
                 (UTC) (F)     (DEG/KT/KT) (MB)    (FT/S)
CHAMBERS ISLAND  0600   64      40/  4/  8 1017.9R
N MID LAKE BUOY  0550   61 68  300/  8/ 10 1017.6R   1/ 4
NORTHPORT PIER   0600   58      CALM  / 11 1017.6S
SISTER BAY       0618   59      40/  1/  4   N/A
ALGOMA LAKESHORE 0612           30/  7/  8   N/A
KEWAUNEE LAKESHO 0600   62      20/  4/  7 1016.7R
SHEBOYGAN LAKESH 0600   65     330/  6/  6 1016.9R
PORT WASHINGTON  0600   66     270/  4/  6 1017.3S
ATWATER BUOY     0600   65 63  290/  2/  4 1018.2F
MILWAUKEE LAKESH 0600   69     270/  1/  2   N/A
KENOSHA   LAKESH 0600   68     240/  6/ 10 1016.6S
$$

TC  - TEMPERATURE IN CELSIUS
VSB - VISIBILITY IN STATUTE MILES
WCI - WIND CHILL INDEX
HX  - HEAT INDEX



USA.gov is the U.S. government's official web portal to all federal, state and local government web resources and services.